Tracking 28126 objects as of 1-Oct-2023
HD Live streaming from Space Station
objects crossing your sky now

DELTA 1 DEB

Track DELTA 1 DEB now!
10-day predictions


NORAD ID: 10716
Int'l Code: 1976-077AM
Perigee: 1,268.1 km
Apogee: 1,471.0 km
Inclination: 102.8 °
Period: 113.0 minutes
Semi major axis: 7740 km
RCS: 0.0939 m2 (small)
Launch date: July 29, 1976
Source: United States (US)
Launch site: AIR FORCE WESTERN TEST RANGE (AFWTR)

Note: This is SATELLITE DEBRIS
Your satellite tracking list
Your tracking list is empty




NASA's NSSDC Master Catalog

Two Line Element Set (TLE):
1 10716U 76077AM  23274.12674914  .00007378  00000-0  33824-1 0  9990
2 10716 102.7844 333.6735 0131085 205.8269 212.6638 12.74809148150236
Source of the keplerian elements: AFSPC